The Dalles, WA

4:30 PM PST on December 07, 2019 (GMT -0800)
Columbia Gorge Regional-The Dalles

Weather History for KDLS - November, 2019

Change the Weather History Date:

Saturday, November 16, 2019

  Actual Average Record
Temperature  
Mean Temperature 48 °F -  
Max Temperature 59 °F 49 °F 67 °F (1976)
Min Temperature 37 °F 36 °F 8 °F (2014)
Degree Days  
Heating Degree Days 17    
Moisture  
Dew Point 40 °F    
Average Humidity 76    
Maximum Humidity 92    
Minimum Humidity 53    
Precipitation  
Precipitation 0.00 in - - ()
Sea Level Pressure  
Sea Level Pressure 30.31 in    
Wind  
Wind Speed 3 mph (East)    
Max Wind Speed 6 mph    
Max Gust Speed -    
Visibility 10 miles    
Events      
Averages and records for this station are not official NWS values.
T = Trace of Precipitation, MM = Missing Value Source: NWS Daily Summary

Daily Weather History Graph

Daily Weather History Graph

Search for Another Location

Airport or City:

Astronomy

Nov. 16, 2019 Rise Set
Actual Time 7:05 AM PST 4:33 PM PST
Civil Twilight 6:32 AM PST 5:05 PM PST
Nautical Twilight 5:56 AM PST 5:41 PM PST
Astronomical Twilight 5:21 AM PST 6:16 PM PST
Moon 8:05 PM PST (11/16) 11:09 AM PST (11/16)
Length of Visible Light 10h 32m
Length of Day
9h 27m
Waning Gibbous, 81% of the Moon is Illuminated
Nov 16
Waning Gibbous
Nov 19
Last Quarter
Nov 26
New
Dec 3
First Quarter
Dec 11
Full

Hourly Weather History & Observations

Time (PST) Temp. Windchill Dew Point Humidity Pressure Visibility Wind Dir Wind Speed Gust Speed Precip Events Conditions
12:53 AM 46.0 °F 43.9 °F 42.1 °F 86% 30.30 in 10.0 mi ESE 4.6 mph - N/A   Partly Cloudy
1:53 AM 46.9 °F - 42.1 °F 83% 30.32 in 10.0 mi Calm Calm - N/A   Clear
2:53 AM 43.0 °F 40.3 °F 39.9 °F 89% 30.32 in 10.0 mi SSE 4.6 mph - N/A   Clear
3:53 AM 46.9 °F - 43.0 °F 86% 30.32 in 10.0 mi NE 5.8 mph - N/A   Clear
4:53 AM 42.1 °F 40.2 °F 39.9 °F 92% 30.35 in 10.0 mi Variable 3.5 mph - N/A   Clear
5:53 AM 41.0 °F - 37.9 °F 89% 30.35 in 10.0 mi Calm Calm - N/A   Clear
6:53 AM 39.9 °F 35.8 °F 36.0 °F 86% 30.35 in 10.0 mi East 5.8 mph - N/A   Clear
7:12 AM 37.9 °F 34.4 °F 35.1 °F 89% 30.35 in 10.0 mi ESE 4.6 mph - N/A   Partly Cloudy
7:53 AM 39.9 °F - 36.0 °F 86% 30.37 in 10.0 mi Calm Calm - N/A   Clear
8:53 AM 44.1 °F - 39.9 °F 85% 30.38 in 10.0 mi Calm Calm - N/A   Clear
9:53 AM 46.9 °F - 41.0 °F 80% 30.37 in 10.0 mi Variable 3.5 mph - N/A   Clear
10:53 AM 51.1 °F - 42.1 °F 71% 30.35 in 10.0 mi Calm Calm - N/A   Clear
11:53 AM 53.1 °F - 43.0 °F 69% 30.32 in 10.0 mi Calm Calm - N/A   Mostly Cloudy
1:53 PM 57.9 °F - 43.0 °F 58% 30.28 in 10.0 mi WNW 3.5 mph - N/A   Clear
2:53 PM 59.0 °F - 42.1 °F 53% 30.26 in 10.0 mi Calm Calm - N/A   Clear
3:53 PM 57.9 °F - 41.0 °F 53% 30.26 in 10.0 mi Calm Calm - N/A   Overcast
4:53 PM 55.0 °F - 42.1 °F 62% 30.27 in 10.0 mi Calm Calm - N/A   Overcast
5:53 PM 53.1 °F - 41.0 °F 64% 30.28 in 10.0 mi Calm Calm - N/A   Mostly Cloudy
6:53 PM 51.1 °F - 41.0 °F 68% 30.29 in 10.0 mi Calm Calm - N/A   Scattered Clouds
7:53 PM 48.9 °F - 39.9 °F 71% 30.27 in 10.0 mi ESE 3.5 mph - N/A   Mostly Cloudy
8:53 PM 46.9 °F - 39.0 °F 74% 30.27 in 10.0 mi East 4.6 mph - N/A   Partly Cloudy
10:53 PM 44.1 °F 41.5 °F 37.9 °F 79% 30.27 in 10.0 mi East 4.6 mph - N/A   Scattered Clouds
11:53 PM 43.0 °F 40.3 °F 37.9 °F 82% 30.26 in 10.0 mi ESE 4.6 mph - N/A   Clear